Location: Asheville, NC
(35.6000°N, 82.5500°W)
Time: 19:31:36
(UTC-05:00)

Envisat - Pass Details

Date: 14 October 2017
Orbit: 764 x 766 km, 98.2° (Epoch: 11 December)

Event Time Altitude Azimuth Distance (km) Brightness Sun altitude
Exits shadow 20:19:58 17° 42° (NE) 1,848 4.6 -17.9°
Drops below altitude 10° 20:21:58 10° 21° (NNE) 2,307 5.3 -18.3°
Sets 20:24:49 0° 5° (N) 3,238 6.2 -18.9°
